Location: El Álamo
(40.2307°N, 3.9945°W)
Time: 04:41:22
(UTC+00:00)

Feng Yun 1-1 Rocket - Pass Details

Date: 19 May 2025
Orbit: 829 x 932 km, 99.0° (Epoch: 23 June)

Event Time Altitude Azimuth Distance (km) Brightness Sun altitude
Exits shadow 20:03:57 - 156° (SSE) 3,214 6.7 -6.6°
Reaches altitude 10° 20:05:46 10° 154° (SSE) 2,508 6.1 -6.9°
Maximum altitude 20:11:18 68° 73° (ENE) 951 4.4 -7.8°
Drops below altitude 10° 20:17:02 10° 351° (N) 2,592 7.4 -8.7°
Sets 20:19:29 0° 349° (N) 3,551 8.2 -9.0°
